Location: Brede
(50.9167°N, 0.6000°E)
Time: 17:09:44
(UTC+00:00)

Lacrosse 4 Rocket - Pass Details

Date: 08 August 2020
Orbit: 544 x 615 km, 68.0° (Epoch: 22 September)

Event Time Altitude Azimuth Distance (km) Brightness Sun altitude
Exits shadow 00:17:19 81° 113° (ESE) 590 1.3 -23.0°
Drops below altitude 10° 00:21:29 10° 37° (NE) 1,874 4.8 -22.9°
Sets 00:23:41 0° 36° (NE) 2,764 5.8 -22.9°
